Sanford, ME

8:01 PM EDT on May 25, 2017 (GMT -0400)
Sanford Regional

Weather History for KSFM - May, 2014

Change the Weather History Date:

Wednesday, May 28, 2014

  Actual Average Record
Temperature  
Mean Temperature 44 °F -  
Max Temperature 48 °F 65 °F 89 °F (2016)
Min Temperature 39 °F 43 °F 32 °F (1997)
Degree Days  
Heating Degree Days 22    
Moisture  
Dew Point 42 °F    
Average Humidity 88    
Maximum Humidity 100    
Minimum Humidity 81    
Precipitation  
Precipitation 0.10 in - - ()
Sea Level Pressure  
Sea Level Pressure 30.09 in    
Wind  
Wind Speed 9 mph (ENE)    
Max Wind Speed 15 mph    
Max Gust Speed 20 mph    
Visibility 6 miles    
Events      
Averages and records for this station are not official NWS values.
T = Trace of Precipitation, MM = Missing Value Source: NWS Daily Summary

Daily Weather History Graph

Daily Weather History Graph

Search for Another Location

Airport or City:

Trip Planner

Search our weather history database for the weather conditions in past years. The results will help you decide how hot, cold, wet, or windy it might be!

Date:

Astronomy

May. 28, 2014 Rise Set
Actual Time 5:07 AM EDT 8:13 PM EDT
Civil Twilight 4:33 AM EDT 8:47 PM EDT
Nautical Twilight 3:49 AM EDT 9:32 PM EDT
Astronomical Twilight 2:56 AM EDT 10:25 PM EDT
Moon 5:13 AM EDT (5/28) 8:07 PM EDT (5/28)
Length of Visible Light 16h 14m
Length of Day
15h 05m
Waning Crescent, 0% of the Moon is Illuminated
May 28
Waning Crescent
May 28
New
Jun 5
First Quarter
Jun 13
Full
Jun 19
Last Quarter

Hourly Weather History & Observations

Time (EDT) Temp. Windchill Dew Point Humidity Pressure Visibility Wind Dir Wind Speed Gust Speed Precip Events Conditions
12:15 AM 46.4 °F 41.9 °F 41.0 °F 81% 30.00 in 4.0 mi NE 9.2 mph - N/A   Overcast
12:35 AM 46.4 °F 42.4 °F 42.8 °F 87% 30.00 in 5.0 mi ENE 8.1 mph - N/A   Overcast
12:55 AM 46.4 °F 41.5 °F 42.8 °F 87% 30.00 in 4.0 mi NNE 10.4 mph - N/A   Overcast
1:15 AM 46.4 °F 41.1 °F 42.8 °F 87% 29.99 in 5.0 mi NNE 11.5 mph - N/A   Overcast
1:35 AM 46.4 °F 41.5 °F 42.8 °F 87% 29.98 in 5.0 mi NE 10.4 mph - N/A   Overcast
1:55 AM 46.4 °F 41.5 °F 41.0 °F 81% 29.98 in 6.0 mi ENE 10.4 mph 16.1 mph 0.01 in   Overcast
2:15 AM 46.4 °F 40.7 °F 42.8 °F 87% 29.98 in 3.0 mi ENE 12.7 mph - N/A   Overcast
2:55 AM 44.6 °F 38.4 °F 42.8 °F 93% 29.98 in 7.0 mi ENE 12.7 mph - N/A   Overcast
3:15 AM 46.4 °F 41.9 °F 42.8 °F 87% 29.98 in 5.0 mi ENE 9.2 mph - N/A   Overcast
3:35 AM 44.6 °F 39.2 °F 44.6 °F 100% 29.97 in 8.0 mi ENE 10.4 mph - 0.02 in   Overcast
3:55 AM 44.6 °F 38.4 °F 42.8 °F 93% 29.97 in 7.0 mi NE 12.7 mph 18.4 mph 0.06 in   Overcast
4:15 AM 46.4 °F 41.5 °F 42.8 °F 87% 29.98 in 5.0 mi NE 10.4 mph - 0.01 in   Overcast
4:35 AM 44.6 °F 40.2 °F 41.0 °F 87% 29.98 in 6.0 mi ENE 8.1 mph - 0.02 in   Overcast
4:55 AM 44.6 °F 39.7 °F 42.8 °F 93% 29.98 in 8.0 mi ENE 9.2 mph - 0.02 in   Overcast
5:15 AM 46.4 °F 41.9 °F 42.8 °F 87% 29.98 in 8.0 mi NE 9.2 mph - N/A   Overcast
5:35 AM 46.4 °F 42.9 °F 42.8 °F 87% 29.98 in 6.0 mi NE 6.9 mph - N/A   Overcast
5:55 AM 46.4 °F 41.1 °F 42.8 °F 87% 29.99 in 4.0 mi NE 11.5 mph - N/A   Overcast
6:15 AM 46.4 °F 42.4 °F 44.6 °F 93% 30.00 in 3.0 mi NE 8.1 mph - N/A   Overcast
6:35 AM 46.4 °F 41.9 °F 42.8 °F 87% 30.00 in 3.0 mi NE 9.2 mph - N/A   Overcast
6:55 AM 46.4 °F 42.4 °F 42.8 °F 87% 30.01 in 3.0 mi ENE 8.1 mph - N/A   Overcast
7:15 AM 46.4 °F 43.5 °F 42.8 °F 87% 30.03 in 3.0 mi NE 5.8 mph - N/A   Overcast
7:35 AM 46.4 °F 41.5 °F 42.8 °F 87% 30.03 in 2.5 mi NE 10.4 mph - N/A   Overcast
7:55 AM 46.4 °F 40.7 °F 42.8 °F 87% 30.03 in 3.0 mi ENE 12.7 mph 17.3 mph N/A   Overcast
8:15 AM 46.4 °F 40.1 °F 42.8 °F 87% 30.04 in 4.0 mi ENE 15.0 mph 19.6 mph N/A   Overcast
8:35 AM 46.4 °F 41.1 °F 42.8 °F 87% 30.05 in 4.0 mi ENE 11.5 mph 19.6 mph N/A   Overcast
9:15 AM 44.6 °F 38.8 °F 42.8 °F 93% 30.06 in 4.0 mi ENE 11.5 mph 17.3 mph N/A   Overcast
9:55 AM 44.6 °F 38.8 °F 41.0 °F 87% 30.09 in 3.0 mi ENE 11.5 mph 18.4 mph N/A   Overcast
10:15 AM 44.6 °F 38.8 °F 41.0 °F 87% 30.10 in 2.0 mi ENE 11.5 mph 17.3 mph N/A   Overcast
10:35 AM 44.6 °F 38.8 °F 42.8 °F 93% 30.10 in 2.0 mi ENE 11.5 mph 18.4 mph N/A   Overcast
10:55 AM 44.6 °F 39.7 °F 42.8 °F 93% 30.10 in 3.0 mi ENE 9.2 mph 17.3 mph N/A   Overcast
11:15 AM 44.6 °F 38.8 °F 42.8 °F 93% 30.11 in 3.0 mi ENE 11.5 mph 16.1 mph N/A   Overcast
11:35 AM 44.6 °F 39.7 °F 42.8 °F 93% 30.11 in 3.0 mi ENE 9.2 mph - N/A   Overcast
11:55 AM 46.4 °F 41.5 °F 42.8 °F 87% 30.12 in 7.0 mi ENE 10.4 mph - 0.01 in   Overcast
12:15 PM 46.4 °F 41.5 °F 42.8 °F 87% 30.13 in 10.0 mi ENE 10.4 mph - N/A   Overcast
12:55 PM 46.4 °F 41.9 °F 42.8 °F 87% 30.13 in 3.0 mi ENE 9.2 mph - N/A   Overcast
1:15 PM 46.4 °F 41.5 °F 44.6 °F 93% 30.14 in 7.0 mi NE 10.4 mph - N/A   Overcast
1:35 PM 46.4 °F 42.9 °F 42.8 °F 87% 30.14 in 4.0 mi ENE 6.9 mph - N/A   Overcast
2:15 PM 48.2 °F - 44.6 °F 87% 30.15 in 5.0 mi East 5.8 mph - N/A   Overcast
2:55 PM 48.2 °F - 42.8 °F 82% 30.15 in 10.0 mi ENE 8.1 mph - N/A   Overcast
3:15 PM 48.2 °F - 42.8 °F 82% 30.15 in 5.0 mi ENE 9.2 mph - N/A   Overcast
3:35 PM 48.2 °F - 42.8 °F 82% 30.16 in 6.0 mi ENE 10.4 mph - N/A   Overcast
3:55 PM 48.2 °F - 44.6 °F 87% 30.16 in 10.0 mi NE 11.5 mph - N/A   Overcast
4:15 PM 48.2 °F - 42.8 °F 82% 30.15 in 10.0 mi ENE 8.1 mph - N/A   Overcast
4:35 PM 48.2 °F - 44.6 °F 87% 30.16 in 10.0 mi ENE 5.8 mph - N/A   Overcast
4:55 PM 46.4 °F 42.9 °F 42.8 °F 87% 30.17 in 10.0 mi East 6.9 mph - N/A   Overcast
5:15 PM 46.4 °F 44.3 °F 42.8 °F 87% 30.17 in 10.0 mi East 4.6 mph - N/A   Overcast
5:35 PM 48.2 °F - 44.6 °F 87% 30.17 in 10.0 mi East 6.9 mph - N/A   Overcast
6:15 PM 46.4 °F 44.3 °F 42.8 °F 87% 30.18 in 10.0 mi East 4.6 mph - N/A   Overcast
6:35 PM 46.4 °F 44.3 °F 42.8 °F 87% 30.18 in 10.0 mi SSE 4.6 mph - N/A   Overcast
7:15 PM 46.4 °F 44.3 °F 42.8 °F 87% 30.19 in 10.0 mi East 4.6 mph - N/A   Overcast
7:35 PM 46.4 °F 45.2 °F 41.0 °F 81% 30.19 in 10.0 mi SE 3.5 mph - N/A   Overcast
7:55 PM 44.6 °F 43.1 °F 41.0 °F 87% 30.20 in 10.0 mi ESE 3.5 mph - N/A   Overcast
8:15 PM 44.6 °F 43.1 °F 39.2 °F 81% 30.20 in 10.0 mi ESE 3.5 mph - N/A   Overcast
8:35 PM 44.6 °F - 39.2 °F 81% 30.20 in 10.0 mi Calm Calm - N/A   Overcast
8:55 PM 44.6 °F - 39.2 °F 81% 30.21 in 10.0 mi Calm Calm - N/A   Overcast
9:15 PM 44.6 °F 43.1 °F 42.8 °F 93% 30.21 in 10.0 mi West 3.5 mph - N/A   Mostly Cloudy
9:35 PM 42.8 °F 40.1 °F 39.2 °F 87% 30.21 in 10.0 mi West 4.6 mph - N/A   Partly Cloudy
9:55 PM 39.2 °F 37.0 °F 37.4 °F 93% 30.21 in 3.0 mi West 3.5 mph - N/A   Partly Cloudy
10:15 PM 41.0 °F 38.0 °F 37.4 °F 87% 30.21 in 8.0 mi WNW 4.6 mph - N/A   Mostly Cloudy
10:35 PM 42.8 °F 40.1 °F 41.0 °F 93% 30.22 in 10.0 mi WNW 4.6 mph - N/A   Partly Cloudy
11:15 PM 42.8 °F 41.1 °F 39.2 °F 87% 30.22 in 1.0 mi NW 3.5 mph - N/A   Overcast
11:55 PM 44.6 °F 41.4 °F 41.0 °F 87% 30.22 in 1.2 mi WNW 5.8 mph - N/A   Overcast